Wind_Speed
6 5 4 9 6 3 5 3 2 5 5 4 5 5 3 5 5 4 7 6 5 4 3 3 3 4 3 1 3 5 6 8 8 7 7 7 7 7
8 8 6 7 7 6 5 3 1 2 3 1 3 5 3 7 6 5 6 7 4 3 3 4 4 4 3 2 1 3 5 7 7 8 7 8 8 8
11 9 9 10 12 10 6 5 6 4 3 3 3 3 3 4 3 5 8 8 8 8 6 5 6 5 5 4 3 3 3 4 5 6 6 7 7 8
12 11 9 12 10 11 9 8 8 7 6 5 6 5 4 4 6 9 9 9 10 10 7 6 4 3 4 5 5 4 4 5 5 6 6 6 6 7
15 13 10 10 12 11 10 10 8 9 9 6 7 8 7 7 8 11 10 11 10 10 9 7 5 5 5 4 4 5 5 6 6 6 6 6 6 6
17 15 15 13 12 13 15 14 12 11 12 11 9 8 8 9 9 10 12 12 13 11 10 8 6 5 5 4 5 5 6 7 7 6 6 6 6 6
17 17 18 15 14 14 15 14 12 10 11 11 11 10 10 11 12 11 12 15 12 12 12 10 7 7 8 5 7 7 6 4 6 5 4 5 6 5
18 16 19 17 17 15 16 16 16 15 14 14 14 14 13 12 13 13 14 15 14 13 12 11 10 9 6 4 0 3 4 3 4 4 3 4 4 3
20 17 18 19 17 18 17 18 15 14 14 14 13 13 14 13 13 14 14 13 15 13 14 13 11 6 2 1 0 1 1 2 2 3 3 4 4 4
24 22 21 21 20 20 16 15 15 15 14 13 12 11 11 11 11 11 12 13 13 9 10 8 7 5 3 4 3 4 5 5 7 7 7 6 6 5
27 27 27 26 24 22 21 20 19 17 15 13 12 11 10 10 10 10 9 7 9 9 8 6 8 9 10 9 10 10 11 9 9 11 11 8 6 5
33 33 31 31 30 27 25 23 21 17 13 10 11 10 8 7 8 10 8 7 7 6 8 6 11 12 7 9 9 11 12 13 12 10 13 12 9 5
35 36 36 35 33 30 26 25 22 16 13 12 12 10 7 6 6 7 7 7 4 3 11 12 11 9 8 8 9 8 8 7 7 6 7 9 9 8
37 37 36 32 30 30 29 27 24 19 19 17 17 12 7 6 8 8 8 10 8 5 9 8 5 7 8 11 11 7 6 4 3 1 1 5 6 5
35 34 35 34 31 31 30 29 24 23 22 23 19 16 12 9 9 10 10 10 9 9 8 7 4 4 8 10 13 10 8 4 3 4 1 4 5 5
20 26 30 33 32 34 32 28 28 27 27 25 20 18 13 12 11 10 10 9 6 8 7 3 6 5 7 8 6 8 6 3 2 3 4 5 4 5
16 17 24 30 33 32 37 36 33 29 25 22 20 19 15 12 12 12 11 9 7 6 4 3 5 7 7 5 6 6 6 4 5 8 7 8 9 10
19 25 27 27 27 25 23 27 25 22 20 19 16 14 14 13 11 10 10 12 10 5 4 6 4 4 6 6 6 6 6 4 6 9 10 13 9 9
11 14 18 19 19 18 16 14 13 14 15 13 13 15 14 12 9 9 12 13 10 11 9 8 7 1 8 9 8 3 2 2 4 4 5 9 9 8
15 15 14 11 9 10 10 10 12 14 13 13 14 14 14 12 12 10 10 10 11 9 8 8 9 10 8 6 4 0 5 6 8 9 8 7 9 10
10 12 12 11 11 12 11 13 13 12 14 16 15 13 11 13 13 10 11 9 11 10 8 8 6 7 5 3 4 5 7 11 11 12 11 10 10 12
12 11 9 9 11 11 12 14 14 17 16 14 13 13 13 11 9 10 12 14 14 9 7 6 6 3 1 3 6 10 11 11 10 11 15 11 14 15
10 7 8 9 11 12 13 12 14 16 14 12 13 12 13 14 15 12 11 13 11 8 8 8 9 4 4 9 11 12 13 14 14 13 14 11 13 13
Wind_Direction
221 226 245 211 205 271 286 359 76 159 184 206 252 335 176 213 281 241 244 272 291 298 343 340 346 352 12 29 183 202 209 229 245 254 259 265 275 280
229 248 231 201 196 218 246 246 85 88 140 212 271 267 281 216 223 239 248 259 258 244 318 330 333 329 334 344 275 227 229 234 243 250 260 271 279 283
238 250 235 225 218 215 234 245 239 229 173 174 290 264 290 226 259 266 261 254 252 258 286 319 317 318 325 325 314 301 282 266 264 265 266 269 270 271
235 242 236 225 220 218 235 251 260 253 238 216 228 261 286 271 254 270 251 248 248 256 268 287 293 315 311 296 284 278 276 273 267 264 265 270 278 284
239 236 236 236 228 234 241 244 257 259 264 259 252 263 274 261 241 244 251 247 251 237 256 263 270 311 325 310 280 276 277 276 276 278 282 289 294 297
243 245 245 240 247 245 248 249 247 256 255 259 266 256 240 247 249 253 246 242 245 240 249 252 255 289 300 318 319 303 293 294 287 284 286 291 295 300
243 244 245 250 260 256 243 243 244 246 252 257 260 256 249 247 251 247 236 242 234 250 245 249 255 274 261 266 288 288 288 283 293 293 291 306 316 324
243 245 250 255 259 253 252 247 249 253 259 260 263 258 253 246 242 233 238 233 225 233 238 253 261 272 269 300 4 304 298 316 313 324 344 355 351 34
241 248 254 256 255 256 256 255 257 250 250 263 267 264 262 256 245 238 236 237 239 240 223 242 254 252 237 232 293 6 45 51 39 41 48 55 46 46
246 252 254 257 264 261 259 251 255 251 256 262 266 258 255 251 241 235 234 229 234 217 216 233 221 212 172 124 92 82 79 82 87 85 74 69 67 74
251 245 250 253 260 261 256 255 253 252 257 271 270 262 260 241 229 216 208 201 192 186 189 210 192 162 143 123 110 89 82 94 96 86 70 65 72 81
250 250 249 249 255 258 254 248 248 251 256 254 253 230 226 215 205 194 210 214 212 198 199 185 166 155 141 137 120 111 96 84 78 83 65 56 53 59
249 250 248 247 250 255 251 240 240 245 245 244 218 202 191 189 199 195 192 207 226 236 184 174 171 175 173 171 158 138 129 107 88 85 62 44 43 45
246 250 253 247 254 255 248 236 234 224 219 208 200 182 178 169 179 186 186 183 186 181 179 180 200 183 188 169 180 172 167 156 126 123 72 20 10 5
240 242 246 247 247 244 235 234 220 212 203 193 191 171 158 149 141 142 136 137 146 152 158 173 215 194 168 178 173 178 178 186 171 147 336 334 317 292
242 242 235 244 243 243 232 207 204 195 189 186 181 170 173 173 169 162 156 143 146 122 105 137 179 167 167 149 144 153 179 189 112 11 339 328 351 358
241 240 235 228 227 213 197 188 177 175 169 168 174 174 173 180 188 187 182 177 172 148 114 91 159 145 139 129 132 110 104 97 51 21 3 337 334 336
234 220 206 198 183 165 157 157 159 161 171 179 189 196 176 181 196 188 183 186 178 143 118 105 122 166 180 166 153 125 125 80 47 40 19 16 19 7
150 160 152 149 144 146 145 151 164 173 180 180 173 179 186 186 192 189 161 161 160 140 124 84 39 189 198 184 185 188 187 257 292 297 329 356 4 358
108 111 119 126 144 147 165 187 185 169 161 176 192 196 184 185 178 183 182 175 170 155 127 97 67 78 115 122 98 333 284 281 286 283 284 313 333 324
162 165 164 170 181 182 180 178 182 184 188 187 192 201 190 178 176 185 186 189 173 156 136 126 116 90 79 41 351 309 303 296 279 286 270 280 288 287
160 156 159 164 171 172 173 175 184 188 191 187 186 189 184 183 185 165 171 177 176 183 172 150 152 153 129 302 306 315 310 303 294 275 258 274 279 281
162 162 161 160 172 185 188 187 197 190 190 193 201 211 198 176 172 175 172 181 191 196 198 203 206 254 306 351 313 294 308 310 307 291 255 283 282 281
Height
1572 1572 1572 1573 1574 1573 1572 1571 1569 1569 1569 1569 1570 1569 1566 1569 1571 1570 1571 1571 1570 1568 1567 1566 1564 1563 1561 1560 1559 1559 1559 1560 1559 1559 1559 1559 1558 1558
1570 1571 1571 1571 1571 1572 1570 1569 1569 1569 1568 1568 1568 1568 1567 1568 1569 1569 1568 1569 1568 1567 1566 1564 1563 1562 1561 1560 1559 1559 1558 1558 1557 1557 1557 1557 1557 1556
1567 1568 1570 1569 1569 1569 1569 1568 1569 1569 1568 1567 1566 1566 1566 1566 1567 1567 1566 1566 1566 1565 1564 1564 1563 1562 1561 1560 1559 1559 1558 1557 1556 1556 1555 1555 1554 1553
1565 1566 1566 1567 1566 1565 1566 1566 1566 1566 1567 1566 1565 1565 1564 1564 1564 1564 1564 1564 1563 1563 1563 1562 1562 1560 1559 1559 1558 1557 1556 1556 1555 1554 1554 1553 1553 1552
1563 1564 1564 1563 1563 1563 1563 1564 1564 1565 1565 1564 1563 1562 1562 1561 1561 1561 1561 1561 1561 1561 1561 1561 1561 1559 1558 1557 1556 1555 1555 1554 1554 1553 1553 1552 1551 1551
1560 1560 1560 1560 1561 1560 1560 1561 1562 1562 1562 1562 1560 1559 1559 1557 1558 1558 1558 1558 1558 1558 1558 1559 1558 1557 1557 1556 1555 1554 1554 1553 1552 1552 1551 1551 1550 1549
1556 1556 1556 1556 1557 1557 1556 1557 1558 1559 1559 1558 1557 1557 1556 1554 1553 1553 1554 1555 1555 1556 1556 1557 1557 1555 1554 1554 1553 1553 1552 1551 1550 1550 1550 1549 1549 1548
1550 1551 1551 1551 1552 1552 1552 1553 1555 1555 1555 1555 1554 1553 1553 1552 1551 1551 1551 1551 1552 1552 1553 1554 1554 1553 1553 1552 1552 1552 1551 1551 1550 1550 1550 1550 1549 1548
1544 1545 1545 1546 1548 1548 1548 1550 1551 1551 1551 1550 1550 1550 1550 1550 1549 1547 1547 1548 1548 1548 1549 1550 1550 1550 1551 1551 1551 1551 1551 1550 1550 1550 1549 1549 1549 1548
1539 1540 1541 1542 1543 1544 1545 1546 1546 1547 1546 1546 1546 1546 1546 1547 1547 1548 1547 1546 1547 1547 1547 1547 1548 1549 1550 1551 1551 1551 1551 1550 1550 1550 1550 1549 1549 1549
1533 1533 1535 1537 1538 1540 1541 1541 1542 1542 1543 1543 1543 1542 1542 1543 1544 1545 1545 1545 1545 1546 1547 1548 1548 1549 1550 1551 1552 1552 1551 1551 1551 1551 1551 1550 1550 1549
1525 1526 1528 1530 1531 1532 1534 1535 1537 1538 1538 1539 1539 1538 1540 1541 1542 1544 1544 1544 1544 1545 1546 1547 1548 1550 1551 1553 1553 1553 1553 1553 1553 1553 1552 1552 1551 1549
1516 1518 1519 1522 1524 1525 1527 1528 1531 1533 1534 1535 1536 1537 1538 1539 1540 1542 1542 1543 1544 1543 1544 1546 1546 1547 1549 1550 1552 1553 1553 1553 1553 1552 1552 1552 1552 1550
1506 1508 1511 1514 1516 1516 1518 1521 1523 1525 1527 1529 1531 1535 1538 1538 1538 1539 1540 1541 1542 1543 1545 1545 1546 1546 1547 1549 1551 1553 1553 1553 1553 1553 1553 1550 1550 1549
1496 1498 1501 1503 1508 1510 1512 1514 1516 1518 1522 1526 1529 1531 1534 1536 1538 1539 1540 1540 1540 1542 1544 1544 1545 1545 1547 1547 1549 1551 1552 1553 1552 1551 1551 1549 1548 1547
1489 1492 1495 1497 1500 1502 1504 1503 1508 1511 1515 1519 1525 1529 1532 1535 1538 1539 1539 1539 1542 1543 1544 1544 1543 1544 1544 1545 1547 1550 1551 1551 1551 1551 1549 1548 1547 1544
1485 1486 1489 1491 1493 1493 1493 1494 1494 1503 1510 1517 1522 1524 1529 1532 1536 1538 1539 1540 1541 1542 1544 1545 1545 1545 1546 1547 1547 1548 1548 1550 1551 1550 1548 1547 1545 1543
1481 1482 1484 1486 1489 1490 1493 1490 1499 1506 1512 1515 1521 1524 1527 1530 1534 1536 1538 1539 1541 1542 1542 1541 1542 1544 1545 1547 1549 1549 1548 1549 1550 1548 1548 1546 1544 1542
1482 1484 1484 1488 1490 1494 1499 1503 1507 1507 1512 1516 1521 1525 1528 1529 1531 1534 1536 1538 1540 1542 1542 1542 1541 1542 1542 1545 1547 1548 1548 1549 1547 1546 1546 1543 1541 1541
1490 1490 1492 1493 1497 1498 1501 1506 1509 1512 1512 1516 1523 1527 1526 1527 1530 1533 1535 1536 1538 1541 1541 1542 1543 1542 1543 1545 1546 1547 1547 1546 1545 1544 1543 1541 1540 1539
1493 1494 1495 1496 1498 1501 1505 1508 1511 1512 1515 1516 1522 1527 1527 1527 1529 1530 1534 1536 1538 1541 1542 1540 1542 1542 1543 1544 1545 1545 1545 1543 1542 1541 1540 1539 1537 1536
1495 1497 1498 1499 1500 1502 1505 1509 1511 1514 1517 1516 1520 1526 1525 1526 1528 1530 1531 1535 1536 1538 1539 1540 1540 1542 1541 1542 1542 1542 1541 1540 1538 1537 1535 1535 1534 1532
1497 1498 1499 1500 1503 1505 1507 1510 1512 1514 1516 1518 1520 1521 1523 1524 1527 1530 1530 1534 1536 1536 1536 1537 1538 1540 1540 1538 1538 1538 1537 1537 1535 1532 1532 1531 1530 1529